Tracking 29487 objects as of 11-Sep-2024
HD Live streaming from Space Station
objects crossing your sky now

STARLINK-4751

Track STARLINK-4751 now!
10-day predictions
STARLINK-4751 is classified as:


NORAD ID: 53825
Int'l Code: 2022-114H
Perigee: 545.9 km
Apogee: 547.9 km
Inclination: 53.2 °
Period: 95.4 minutes
Semi major axis: 6917 km
RCS: Unknown
Launch date: September 19, 2022
Source: United States (US)
Launch site: AIR FORCE EASTERN TEST RANGE (AFETR)
Your satellite tracking list
Your tracking list is empty




NASA's NSSDC Master Catalog

Two Line Element Set (TLE):
1 53825U 22114H   24255.22454222 -.00000347  00000-0 -37271-5 0  9995
2 53825  53.2173 228.4613 0001479  96.4952 263.6209 15.08830581110636
Source of the keplerian elements: AFSPC